Flag for Japan Weather past 2 weeks in Utsunomiya, Japan

Now
66 °F

Mild.


Feels Like: 66 °F
Forecast: 57 / 74 °F
Wind: 12 mph from Northeast

Location: Mito

Current Time: Oct 1, 2014 at 3:29:19 PM

Latest Report: Oct 1, 2014 at 2:00 PM


Visibility: N/A

Pressure: 30.05 "Hg

Humidity: 76%

Dew point: 58 °F

Location of UtsunomiyaLocation

Historic Weather in Utsunomiya — Graph

°F

Utsunomiya temperature yesterday

Maximum temperature yesterday: 81 °F (at 2:00 PM)
Minimum temperature yesterday: 61 °F (at 5:00 AM)
Average temperature yesterday: 70 °F

Past Weeks' High & Low Weather Summary

 TemperatureHumidityPressure
High82 °F (Sep 16, 2:00 PM)97% (Sep 25, 3:00 PM)30.21 "Hg (Sep 25, 3:00 PM)
Low52 °F (Sep 19, 5:00 AM)39% (Sep 19, 11:00 AM)29.57 "Hg (Sep 25, 2:00 PM)
Average68 °F73%29.96 "Hg
* Reported Sep 16 2:00 PM — Oct 1 2:00 PM, Utsunomiya, Weather by CustomWeather, © 2014

Note: Actual official high and low records may vary slightly from our data, if they occured in-between our weather recording intervals... More about our weather records

Advertising

Utsunomiya weather history for previous 24 hours

 ConditionsComfort  
Time TempWeatherWind HumidityBarometerVisibility
2:00 PM
Oct 1
66 °FMild.12 mph76%30.05 "HgN/A
1:00 PM67 °FMild.10 mph73%30.06 "HgN/A
12:00 PM67 °FMild.10 mph71%30.06 "HgN/A
11:00 AM68 °FMild.15 mph69%30.07 "HgN/A
10:00 AM69 °FMild.15 mph68%30.06 "HgN/A
9:00 AM68 °FOvercast.15 mph69%30.07 "Hg9 mi
8:00 AM68 °FMild.15 mph71%30.06 "HgN/A
7:00 AM68 °FMild.14 mph80%30.05 "HgN/A
6:00 AM67 °FMild.15 mph80%30.02 "HgN/A
5:00 AM69 °FMild.12 mph75%30.01 "HgN/A
4:00 AM66 °FMild.3 mph87%30.00 "HgN/A
3:00 AM67 °FOvercast.2 mph88%29.98 "Hg12 mi
2:00 AM67 °FMild.3 mph87%29.98 "HgN/A
1:00 AM67 °FMild.2 mph88%29.98 "HgN/A
12:00 AM68 °FMild.2 mph88%29.98 "HgN/A
11:00 PM
Sep 30
69 °FMild.2 mph88%29.98 "HgN/A
10:00 PM70 °FMild.No wind84%29.97 "HgN/A
9:00 PM71 °FOvercast.1 mph81%29.98 "Hg12 mi
8:00 PM71 °FMild.2 mph82%29.96 "HgN/A
7:00 PM72 °FMild.2 mph79%29.96 "HgN/A
6:00 PM72 °FMild.6 mph76%29.94 "HgN/A
5:00 PM74 °FMild.5 mph72%29.91 "HgN/A
4:00 PM76 °FMild.7 mph64%29.89 "HgN/A
3:00 PM79 °FScattered clouds.7 mph51%29.87 "Hg16 mi
Weather by CustomWeather, © 2014

See weather overviewHow to use our weather pages